User: anonymous   Login
Location: Brachbach
(49.1847°N, 9.7240°E)
Time: 17:24:49
(UTC+00:00)
Language:

Cosmos 1833 Rocket - Orbit

View from above orbital plane
View from above orbital plane
View from above satellite
View from above satellite

Ground track
Ground track

The orbit data is extracted from the following two-line orbital elements,

1 17590U 87027B   24205.13110945  .00000235  00000-0  14060-3 0  9997
2 17590  71.0035  89.2253 0006972 297.2754  62.7660 14.16990038931381
Epoch (UTC): 23 July 2024 03:08:47
Eccentricity: 0.0006972
inclination: 71.0035°
perigee height: 830 km
apogee height: 840 km
right ascension of ascending node: 89.2253°
argument of perigee: 297.2754°
revolutions per day: 14.16990038
mean anomaly at epoch: 62.7660°
orbit number at epoch: 93138

The dashed part of the orbit path shows where the satellite is in the earth's shadow,  

DLR